Погода в Здвинске

Погода в Здвинске : погода сейчас, прогноз погоды и архив. Всё, что Вы хотите узнать о погоде в Здвинске!

Хотите узнать прогноз погоды в Здвинске? Тогда Вам сюда: Погода в Здвинске

Поиск расширенной информации на нашем сайте:

Другие новости

Новости СМИ2

Главная страница сайта

Новости сайта

03.07.2017

Напоминаем, что на нашем специализированном сайте Метеоцентр.Азия вы можете получить высокодетализированные автоматические прогнозы погоды по пунктам России, СНГ и мира в авиационном формате (включающие направление и скорость ветра, видимость, явления погоды, количество и форму облачности, нижнюю и верхнюю границу облачности).

Рекомендуем: трубы 25 мм хром

Погода в Здвинске - сегодня

Время (UTC), дата Ветер
(°,м/с) 
Видим.   Явления Облачность Т
(°С)
Тd
(°С)
f(%) Тe
(°С)
Pmin
(гПа)
dP
(гПа)
Po
(мм)
O2
(г/м3)
Тmin Tmax R s Состояние
почвы
09 20.02.18 190 (Ю) 20000 м    8/0 верхняя 
[Ci sp]
-9.6 -14 70 -11  1035.3  -0.7  765  321           
12 20.02.18 160 (Ю) 20000 м    10/0 верхняя 
[Ci sp]
-10.7 -14.7 72 -13  1033.6  -1.8  764  322    -9.3       
15 20.02.18 170 (Ю) 20000 м    6/0 верхняя 
[Ci sp]
-13.2 -16.1 79 -15  1032.7  -1  763  325           
18 20.02.18 170 (Ю) 20000 м    8/0 верхняя 
[Ci sp]
-14.2 -16.9 80 -16  1031  -1.8  762  325           
21 20.02.18 150 (ЮВ) 20000 м    4/0 верхняя 
[Ci fib]
-13.3 -16.1 79 -15  1029.1  -1.8  760  323           
00 21.02.18 150 (ЮВ) 20000 м    6/0 верхняя 
[Ci fib]
-13.6 -16.2 81 -16  1027.8  -1.3  759  323  -15.1      25  равномерный
сухой снег
100% 
03 21.02.18 110 (В) 20000 м    6/0 верхняя 
[Ci fib]
-14.1 -16.9 79 -16  1026.4  -1.3  758  324           
06 21.02.18 140 (ЮВ) 20000 м    8/0 верхняя 
[Ci fib]
-8.7 -14.6 62 -12  1024.8  -1.3  758  317           
09 21.02.18 130 (ЮВ) 20000 м    3/0 верхняя 
[Ci fib]
-5.7 -13.8 53 -9  1021.6  -3  755  312           
12 21.02.18 120 (ЮВ) 20000 м    6/0 верхняя 
[Ci fib]
-6.1 -13 58 -9  1019.3  -2.3  754  312    -5.6       
15 21.02.18 120 (ЮВ) 20000 м    8/0 средняя 
[Ac As]
-6.4 -12.7 61 -10  1016.4  -2.9  751  311           
18 21.02.18 130 (ЮВ) 20000 м    10/0 средняя 
[Ac As]
-5.4 -11.6 62 -9  1013.7  -2.6  749  309           
21 21.02.18 120 (ЮВ) 20000 м    10/0 средняя 
[Ac As]
-5.8 -11 67 -7  1011.7  -2  748  309           
00 22.02.18 170 (Ю) 10 км  слаб. снег  10/8 600 м кучево-дожд., средняя 
[Cb cap|Ac As]
-6.8 -8.7 86 -9  1010.9  -0.8  747  310  -6.8    0.5  26  равномерный
сухой снег
100% 
03 22.02.18 240 (ЮЗ) 10 км  слаб. снег  10/0 средняя 
[As op]
-5.9 -7.5 88 -10  1011.9  748  309           
09 22.02.18 240 (ЮЗ) 6{11}  20000 м  позёмок  4/4 1000 м 
[Sc]
-9.2 -12.7 76 -14  1018.7  3.1  753  315           
12 22.02.18 240 (ЮЗ) 4{11}  20000 м    ясно 
-10.8 -13.6 80 -15  1021.3  2.5  755  318    -5.9  0.2     
15 22.02.18 230 (ЮЗ) 20000 м    ясно 
-11.2 -14.1 79 -14  1022.8  1.4  756  319           
18 22.02.18 200 (Ю) 20000 м    ясно 
-14.2 -16.5 83 -16  1023.5  0.6  756  323           
21 22.02.18 180 (Ю) 20000 м    3/0 верхняя 
[Ci fib]
-15.8 -17.7 85 -20  1022.9  -0.7  756  325           
00 23.02.18 190 (Ю) 20000 м    8/0 верхняя 
[Ci fib]
-14.4 -16.4 85 -18  1021.9  -0.9  755  323  -15.9      24  равномерный
сухой снег
100% 
03 23.02.18 220 (ЮЗ) 10 км  слаб. снег  10/0 средняя 
[As op]
-12.9 -15.1 84 -18  1021.9  0.1  755  321           
09 23.02.18 230 (ЮЗ) 20000 м    8/0 средняя, верхняя 
[Ac As|Ci sp]
-10.7 -14.5 74 -15  1022.6  0.1  756  318           
12 23.02.18 220 (ЮЗ) 20000 м    8/0 средняя, верхняя 
[Ac As|Ci sp]
-12.5 -15.6 78 -15  1023.1  0.4  756  321    -10.1  0.0     
15 23.02.18 210 (ЮЗ) 20000 м    ясно 
-14.8 -17 83 -17  1023.2  -0.1  756  324           
Время (UTC), дата Ветер
(°,м/с) 
Видим.   Явления Облачность Т
(°С)
Тd
(°С)
f(%) Тe
(°С)
Pmin
(гПа)
dP
(гПа)
Po
(мм)
O2
(г/м3)
Тmin Tmax R s Состояние
почвы

Для получения пояснительной информации подведите курсор к названию столбца.

ПОГОДА в Здвинске - архив

Всё, что Вы хотите узнать о погоде в Здвинске - удобно и подробно!

Выберите нужную дату (начиная с 1 января 2015* года) и нажмите кнопку "Найти".
Будут отображены архивные сводки погоды по пункту Здвинск, начиная с указанной даты.


Отображать данные в формате CSV (для использования в таблицах Excel)


Внимание! Наш архив погоды предназначен исключительно для личного некоммерческого использования в познавательных целях. Если Вам необходимы официальные справки о состоянии погоды (для производственных, юридических, коммерческих и т.п. целей), обращайтесь в органы Росгидромета.

*Примечание: данная дата относится к архиву по метеостанциям СССР (Россия, СНГ, Балтия).
Архив по метеостанциям Зарубежной Европы и Азии (кроме Китая) хранится 10 дней, по другим регионам земного шара (Китай, Африка, Америка, Австралия, Океания) - 1 день.

Здвинск - район местоположения метеостанции


Название, широта, долгота, высота метеостанции:
Здвинск 54.7°ш. 78.7°д. 113 м над ур. моря [Российская Федерация]

Дополнительная информация

В oтличие oт бoльшинства пoгoдных сайтoв мы публикуем пoдрoбную метеoинфoрмацию в детальнoм прoфессиoнальнoм фoрмате.

Характеристики температуры и влажнoсти вoздуха измеряются на высoте 2 м в тени вдали oт зданий и деревьев.
Скoрoсть ветра измеряется на высoте 10 м (на урoвне рoста челoвека скoрoсть ветра ниже в 1.5-2 раза). Если метеoстанция нахoдится в гoрoде или в лесу, тo скoрoсть ветра занижена на 2-4 м/с пo сравнению с oткрытым местoм. Скoрoсть ветра над акватoриями крупных рек и oзёр, а также на вершинах хoлмoв на 2-5 м/с выше, чем в oбычных услoвиях.
Атмoсфернoе давление в разных тoчках местнoсти мoжет значительнo oтличаться oт давления на метеoстанции, в зависимoсти oт услoвий рельефа (при пoдъёме на 10 м давление пoнижается примернo на 1 мм рт.ст.).